Regional Weather Roundup
Issued by NWS

Home | Current Version | Previous Version | Graphics & Text | Print | Product List | Glossary On
Versions: 1 2 3 4 5 6 7 8 9 10 11 12 13 14 15 16 17 18 19 20 21 22 23 24 25 26 27 28 29 30 31 32 33 34 35 36 37 38 39 40 41 42 43 44 45 46 47 48 49 50
000
ASUS43 KMKX 260000
RWRWI

WISCONSIN REGIONAL WEATHER ROUNDUP
NATIONAL WEATHER SERVICE MILWAUKEE/SULLIVAN WI
700 PM CDT SAT MAR 25 2017

NOTE: "FAIR" INDICATES FEW OR NO CLOUDS BELOW 12,000 FEET WITH NO
SIGNIFICANT WEATHER AND/OR OBSTRUCTIONS TO VISIBILITY.

WIZ001-002-006>008-014>016-023>028-260100-
NORTHWEST WISCONSIN

CITY           SKY/WX    TMP DP  RH WIND       PRES   REMARKS
SUPERIOR ARPT  CLOUDY    33  31  91 E8G20     30.19S WCI  26
ASHLAND        CLOUDY    34  29  82 NE8       30.18F WCI  27
6HR MIN TEMP:  34; 6HR MAX TEMP:  37;

HAYWARD        CLOUDY    42  29  59 E9        30.11F
6HR MIN TEMP:  40; 6HR MAX TEMP:  46;

SIREN          CLOUDY    44  31  60 E8        30.09F
CUMBERLAND     CLOUDY    39  30  70 E8        30.09S WCI  34
RICE LAKE      CLOUDY    41  32  70 CALM      30.11S
CHETEK         CLOUDY    40  32  73 NE7       30.09F
LADYSMITH      CLOUDY    40  32  73 NE7       30.12S
EAU CLAIRE     LGT RAIN  38  35  89 NE12      30.08S FOG     WCI  30
MENOMONIE      RAIN      39  36  89 NE5       30.08S
NEW RICHMOND   CLOUDY    41  32  71 E8G20     30.08S
OSCEOLA        CLOUDY    43  33  67 E5        30.11S
$$

WIZ003>005-009-010-017-018-260100-
NORTH CENTRAL WISCONSIN

CITY           SKY/WX    TMP DP  RH WIND       PRES   REMARKS
MANITOWISH WTR CLOUDY    36  31  83 E8        30.13F WCI  30
ARBOR VITAE    CLOUDY    39  31  72 E5        30.13S
WOODRUFF       CLOUDY    39  31  72 E5        30.13S
RHINELANDER    CLOUDY    38  30  73 E14       30.13F WCI  30
6HR MIN TEMP:  37; 6HR MAX TEMP:  41;

EAGLE RIVER    CLOUDY    37  29  70 E8        30.14S WCI  31
LAND O LAKES   CLOUDY    37  30  75 E7        30.17S WCI  32
PHILLIPS       CLOUDY    39  31  74 E9        30.11S WCI  32
TOMAHAWK       CLOUDY    37  29  75 E8        30.13S WCI  30
MEDFORD        CLOUDY    36  31  81 E12G18    30.09S WCI  28
MERRILL        CLOUDY    37  31  79 E12       30.12S WCI  29
$$

WIZ029-030-035-036-043>047-260100-
CENTRAL WISCONSIN

CITY           SKY/WX    TMP DP  RH WIND       PRES   REMARKS
WAUSAU         LGT RAIN  34  31  88 E8G18     30.11R WCI  27
6HR MIN TEMP:  34; 6HR MAX TEMP:  41; 6HR PCP: TRACE;

MOSINEE        LGT RAIN  34  32  93 E13G23    30.13R WCI  25
MARSHFIELD     LGT RAIN  34  32  92 E15       30.08S FOG     WCI  24
6HR MIN TEMP:  34; 6HR MAX TEMP:  39; 6HR PCP: TRACE;

STEVENS POINT  CLOUDY    32  32 100 E12       30.13R WCI  23
WAUPACA        RAIN      36  34  92 NE6       30.14R WCI  31
WAUTOMA        CLOUDY    35  34  96 NE14      30.10F FOG     WCI  26
6HR MIN TEMP:  35; 6HR MAX TEMP:  37; 6HR PCP:  0.07;

WISC RAPIDS    CLOUDY    34  34 100 E15G22    30.11S WCI  24
6HR MIN TEMP:  34; 6HR MAX TEMP:  39; 6HR PCP:  0.03;

CAMP DOUGLAS   NOT AVBL
$$

WIZ011>013-019>022-031-037>040-048>050-260100-
NORTHEAST WISCONSIN

CITY           SKY/WX    TMP DP  RH WIND       PRES   REMARKS
ANTIGO         CLOUDY    32  30  90 E13G20    30.14S WCI  23
SHAWANO        RAIN      35  32  88 NE14      30.16S WCI  26
OCONTO         CLOUDY    33  31  92 NE8       30.18R WCI  27
STURGEON BAY   MIX PCPN  35  33  92 NE9       30.18R WCI  28
6HR MIN TEMP:  35; 6HR MAX TEMP:  37; 6HR PCP: TRACE;

GREEN BAY      LGT RAIN  35  35 100 NE16      30.15S FOG     WCI  25
6HR MIN TEMP:  35; 6HR MAX TEMP:  38; 6HR PCP:  0.01;

MANITOWOC      NOT AVBL
APPLETON       NOT AVBL
CLINTONVILLE   LGT RAIN  34  32  93 E13       30.14F WCI  25
OSHKOSH        CLOUDY    36  35  96 NE10      30.10S FOG     WCI  28
6HR MIN TEMP:  36; 6HR MAX TEMP:  37; 6HR PCP:  0.01;

$$

WIZ032>034-041-042-053>061-260100-
SOUTHWEST WISCONSIN

CITY           SKY/WX    TMP DP  RH WIND       PRES   REMARKS
LA CROSSE      LGT RAIN  39  36  89 E7        30.04F FOG     WCI  34
6HR MIN TEMP:  39; 6HR MAX TEMP:  42; 6HR PCP:  0.02;

SPARTA         CLOUDY    36  35  96 E12G18    30.07S WCI  28
VIROQUA        CLOUDY    37  36  99 E18G24    30.00S WCI  26
BOSCOBEL       CLOUDY    41  37  86 E10G22    30.01S
6HR MIN TEMP:  40; 6HR MAX TEMP:  41; 6HR PCP:  0.02;

PRAIRIE DU CHI CLOUDY    39  38  97 E9        29.99S FOG     WCI  33
PLATTEVILLE    CLOUDY    40  40 100 E14G24    29.97S WCI  32
$$

WIZ056-057-062-063-064-067-068-260100-
SOUTH CENTRAL WISCONSIN

CITY           SKY/WX    TMP DP  RH WIND       PRES   REMARKS
REEDSBURG      CLOUDY    36  36 100 E9G20     30.05R FOG     WCI  29
BARABOO/DELLS  CLOUDY    36  35  96 E12G18    30.04S FOG     WCI  28
LONE ROCK      NOT AVBL
MINERAL POINT  CLOUDY    41  41 100 E17       29.97F FOG
MADISON        DRIZZLE   39  37  92 E15       30.03S WCI  31
6HR MIN TEMP:  39; 6HR MAX TEMP:  39; 6HR PCP:  0.08;

MIDDLETON      CLOUDY    40  39  96 E12G18    30.03S WCI  33
WATERTOWN      CLOUDY    38  38 100 E13G18    30.03F WCI  31
MONROE         CLOUDY    39  37  93 NE15      29.98S WCI  31
JANESVILLE     CLOUDY    41  41 100 E16       29.99S
$$

WIZ051-052-058>065-066-070>072-260100-
SOUTHEAST WISCONSIN

CITY           SKY/WX    TMP DP  RH WIND       PRES   REMARKS
MILWAUKEE      LGT RAIN  39  36  89 NE13      30.07R WCI  31
6HR MIN TEMP:  39; 6HR MAX TEMP:  39; 6HR PCP:  0.10;

WAUKESHA       DRIZZLE   36  36 100 E12G18    30.06S WCI  27
MILWAUKEE/TIMM DRIZZLE   37  36  93 NE10      30.08R WCI  30
RACINE         LGT RAIN  39  37  92 NE12      30.07S WCI  32
6HR MIN TEMP:  38; 6HR MAX TEMP:  39; 6HR PCP:  0.16;

KENOSHA        LGT RAIN  40  39  97 NE13      30.03S FOG     WCI  32
6HR MIN TEMP:  39; 6HR MAX TEMP:  40; 6HR PCP:  0.03;

FOND DU LAC    LGT RAIN  38  35  89 E16       30.09S WCI  29
6HR MIN TEMP:  38; 6HR MAX TEMP:  39; 6HR PCP:  0.01;

SHEBOYGAN      CLOUDY    37  35  92 NE14      30.11S WCI  28
6HR MIN TEMP:  37; 6HR MAX TEMP:  38; 6HR PCP:  0.02;

WEST BEND      CLOUDY    36  36 100 E15       30.08S WCI  26
JUNEAU         DRIZZLE   37  37  97 NE13      30.06F WCI  29
$$

LSZ147-162-260100-
LAKE SUPERIOR

STATION/POSITION TIME  TEMP    WIND        PRES    WAVE
                       AIR SEA DIR/SP/G            HT/PER
                 (UTC) (F)     (DEG/KT/KT) (MB)    (FT/S)
DEVILS ISLAND    2300   32      80/ 23/ 26 1024.1F
PORT WING        2340   34      40/ 15/ 17 1022.4S
SAXON HARBOR     2330   34      50/ 15/ 17 1021.7S
$$

LMZ867-665-643>646-260100-
LAKE MICHIGAN

STATION/POSITION TIME  TEMP    WIND        PRES    WAVE
                       AIR SEA DIR/SP/G            HT/PER
                 (UTC) (F)     (DEG/KT/KT) (MB)    (FT/S)
CHAMBERS ISLAND  2340   33      30/ 13/ 20 1022.0S
NORTHPORT PIER   2340   35      50/ 16/ 22 1023.0S
SISTER BAY       2236   35     110/  7/ 13   N/A
KEWAUNEE LAKESHO 2330   36      40/ 11/ 14 1020.5R
SHEBOYGAN LAKESH 2300   37      20/ 13/ 14 1020.1R
PORT WASHINGTON  2340   39      40/ 13/ 17 1020.0S
MILWAUKEE LAKESH 2340   38      20/ 15/ 17   N/A
KENOSHA   LAKESH 2300   38      20/ 16/ 17 1017.3
$$

TC  - TEMPERATURE IN CELSIUS
VSB - VISIBILITY IN STATUTE MILES
WCI - WIND CHILL INDEX
HX  - HEAT INDEX




USA.gov is the U.S. government's official web portal to all federal, state and local government web resources and services.